• In Belarus
  • List of Countries
  • For 7 days
  • Water Temperature
  • Satellite Maps
  • Weather Map
  • Weather Widgets
  • user-avatar
    Login

    Hourly Weather San Miguel de Tucumán

    Today, 21 May, Monday

    Time Temperature Precipitation Wind Pressure Humidity
    00:00 +15°C° 0 mm 1 mps 718 mmHg 80%
    01:00 +15°C° 0 mm 1 mps 718 mmHg 79%
    02:00 +15°C° 0 mm 1 mps 718 mmHg 78%
    03:00 +15°C° 0 mm 1 mps 718 mmHg 77%
    04:00 +15°C° 0 mm 1 mps 718 mmHg 77%
    05:00 +14°C° 0 mm 1 mps 718 mmHg 77%
    06:00 +15°C° 0 mm 1 mps 719 mmHg 77%
    07:00 +15°C° 0 mm 1 mps 720 mmHg 77%
    08:00 +15°C° 0 mm 1 mps 721 mmHg 76%
    09:00 +17°C° 0 mm 2 mps 722 mmHg 73%
    10:00 +18°C° 0 mm 2 mps 722 mmHg 70%
    11:00 +19°C° 0 mm 2 mps 722 mmHg 66%
    12:00 +20°C° 0 mm 2 mps 722 mmHg 62%
    13:00 +20°C° 0 mm 2 mps 722 mmHg 59%
    14:00 +21°C° 0 mm 2 mps 722 mmHg 55%
    15:00 +20°C° 0 mm 2 mps 722 mmHg 60%
    16:00 +19°C° 0 mm 2 mps 722 mmHg 65%
    17:00 +20°C° 0 mm 1 mps 721 mmHg 69%
    18:00 +18°C° 0 mm 1 mps 722 mmHg 76%
    19:00 +16°C° 0 mm 1 mps 722 mmHg 82%
    20:00 +14°C° 0 mm 1 mps 723 mmHg 88%
    21:00 +14°C° 0 mm 1 mps 723 mmHg 88%
    22:00 +14°C° 0 mm 1 mps 723 mmHg 89%
    23:00 +13°C° 0 mm 1 mps 723 mmHg 90%

    Tomorrow, 22 May, Tuesday

    Time Temperature Precipitation Wind Pressure Humidity
    00:00 +13°C° 0 mm 1 mps 723 mmHg 89%
    01:00 +13°C° 0 mm 1 mps 723 mmHg 89%
    02:00 +13°C° 0 mm 1 mps 723 mmHg 89%
    03:00 +13°C° 0 mm 1 mps 723 mmHg 90%
    04:00 +13°C° 0 mm 1 mps 723 mmHg 90%
    05:00 +13°C° 0 mm 1 mps 723 mmHg 90%
    06:00 +13°C° 0 mm 1 mps 724 mmHg 89%
    07:00 +13°C° 0 mm 1 mps 724 mmHg 87%
    08:00 +14°C° 0 mm 1 mps 725 mmHg 85%
    09:00 +15°C° 0 mm 1 mps 725 mmHg 78%
    10:00 +18°C° 0 mm 1 mps 725 mmHg 71%
    11:00 +20°C° 0 mm 1 mps 726 mmHg 64%
    12:00 +19°C° 0 mm 2 mps 725 mmHg 62%
    13:00 +20°C° 0 mm 2 mps 724 mmHg 61%
    14:00 +20°C° 0 mm 2 mps 723 mmHg 60%
    15:00 +20°C° 0 mm 2 mps 723 mmHg 64%
    16:00 +20°C° 0 mm 1 mps 723 mmHg 67%
    17:00 +19°C° 0 mm 1 mps 723 mmHg 71%
    18:00 +18°C° 0 mm 1 mps 723 mmHg 76%
    19:00 +16°C° 0 mm 1 mps 723 mmHg 82%
    20:00 +14°C° 0 mm 1 mps 724 mmHg 87%
    21:00 +14°C° 0 mm 1 mps 724 mmHg 87%
    22:00 +14°C° 0 mm 1 mps 724 mmHg 87%
    23:00 +13°C° 0 mm 1 mps 724 mmHg 87%

    Day after tomorrow, 23 May, Wednesday

    Time Temperature Precipitation Wind Pressure Humidity
    00:00 +13°C° 0 mm 1 mps 724 mmHg 88%
    01:00 +13°C° 0 mm 1 mps 723 mmHg 88%
    02:00 +13°C° 0 mm 1 mps 723 mmHg 88%
    03:00 +13°C° 0 mm 1 mps 723 mmHg 88%
    04:00 +12°C° 0 mm 1 mps 723 mmHg 88%
    05:00 +12°C° 0 mm 1 mps 723 mmHg 88%
    06:00 +13°C° 0 mm 1 mps 723 mmHg 85%
    07:00 +13°C° 0 mm 1 mps 724 mmHg 83%
    08:00 +14°C° 0 mm 1 mps 724 mmHg 80%
    09:00 +16°C° 0 mm 2 mps 724 mmHg 72%
    10:00 +18°C° 0 mm 2 mps 725 mmHg 64%
    11:00 +20°C° 0 mm 3 mps 725 mmHg 56%
    12:00 +21°C° 0 mm 3 mps 725 mmHg 55%
    13:00 +22°C° 0 mm 3 mps 724 mmHg 53%
    14:00 +24°C° 0 mm 3 mps 723 mmHg 51%
    15:00 +23°C° 0 mm 2 mps 723 mmHg 57%
    16:00 +21°C° 0 mm 2 mps 723 mmHg 63%
    17:00 +21°C° 0 mm 1 mps 723 mmHg 68%
    18:00 +19°C° 0 mm 1 mps 724 mmHg 75%
    19:00 +18°C° 0 mm 1 mps 725 mmHg 81%
    20:00 +15°C° 0 mm 1 mps 725 mmHg 87%
    21:00 +15°C° 0 mm 1 mps 726 mmHg 86%
    22:00 +15°C° 0 mm 1 mps 726 mmHg 86%
    23:00 +14°C° 0 mm 1 mps 726 mmHg 85%

    24 May, Thursday

    Time Temperature Precipitation Wind Pressure Humidity
    00:00 +14°C° 0 mm 1 mps 726 mmHg 85%
    01:00 +14°C° 0 mm 1 mps 726 mmHg 84%
    02:00 +14°C° 0 mm 1 mps 726 mmHg 83%
    03:00 +14°C° 0 mm 1 mps 725 mmHg 82%
    04:00 +13°C° 0 mm 1 mps 725 mmHg 81%
    05:00 +13°C° 0 mm 1 mps 725 mmHg 80%
    06:00 +14°C° 0 mm 1 mps 726 mmHg 78%
    07:00 +14°C° 0 mm 1 mps 726 mmHg 76%
    08:00 +15°C° 0 mm 1 mps 726 mmHg 74%
    09:00 +17°C° 0 mm 2 mps 727 mmHg 67%
    10:00 +19°C° 0 mm 2 mps 727 mmHg 60%
    11:00 +23°C° 0 mm 2 mps 727 mmHg 53%
    12:00 +24°C° 0 mm 3 mps 726 mmHg 51%
    13:00 +24°C° 0 mm 3 mps 725 mmHg 49%
    14:00 +25°C° 0 mm 3 mps 724 mmHg 47%
    15:00 +24°C° 0 mm 3 mps 724 mmHg 52%
    16:00 +22°C° 0 mm 3 mps 723 mmHg 56%
    17:00 +21°C° 0 mm 2 mps 723 mmHg 61%
    18:00 +20°C° 0 mm 2 mps 723 mmHg 65%
    19:00 +18°C° 0 mm 2 mps 723 mmHg 69%
    20:00 +17°C° 0 mm 2 mps 723 mmHg 73%
    21:00 +16°C° 0 mm 2 mps 723 mmHg 74%
    22:00 +16°C° 0 mm 2 mps 723 mmHg 74%
    23:00 +15°C° 0 mm 2 mps 723 mmHg 75%

    25 May, Friday

    Time Temperature Precipitation Wind Pressure Humidity
    00:00 +15°C° 0 mm 2 mps 723 mmHg 76%
    01:00 +15°C° 0 mm 2 mps 723 mmHg 77%
    02:00 +14°C° 0 mm 1 mps 723 mmHg 77%
    03:00 +14°C° 0 mm 1 mps 723 mmHg 77%
    04:00 +14°C° 0 mm 1 mps 722 mmHg 77%
    05:00 +14°C° 0 mm 1 mps 722 mmHg 77%
    06:00 +14°C° 0 mm 1 mps 723 mmHg 75%
    07:00 +15°C° 0 mm 1 mps 723 mmHg 72%
    08:00 +15°C° 0 mm 1 mps 723 mmHg 70%
    09:00 +18°C° 0 mm 2 mps 724 mmHg 63%
    10:00 +20°C° 0 mm 2 mps 724 mmHg 56%
    11:00 +23°C° 0 mm 2 mps 724 mmHg 49%
    12:00 +24°C° 0 mm 2 mps 723 mmHg 47%
    13:00 +25°C° 0 mm 2 mps 722 mmHg 45%
    14:00 +26°C° 0 mm 3 mps 721 mmHg 44%
    15:00 +25°C° 0 mm 2 mps 721 mmHg 49%
    16:00 +24°C° 0 mm 2 mps 721 mmHg 55%
    17:00 +23°C° 0 mm 2 mps 720 mmHg 60%
    18:00 +21°C° 0 mm 1 mps 721 mmHg 65%
    19:00 +20°C° 0 mm 1 mps 721 mmHg 69%
    20:00 +18°C° 0 mm 1 mps 721 mmHg 74%
    21:00 +18°C° 0 mm 1 mps 721 mmHg 74%
    22:00 +16°C° 0 mm 1 mps 721 mmHg 73%
    23:00 +16°C° 0 mm 2 mps 721 mmHg 73%

    26 May, Saturday

    Time Temperature Precipitation Wind Pressure Humidity
    00:00 +16°C° 0 mm 2 mps 720 mmHg 72%
    01:00 +16°C° 0 mm 2 mps 720 mmHg 71%
    02:00 +16°C° 0 mm 2 mps 719 mmHg 70%
    03:00 +15°C° 0 mm 2 mps 719 mmHg 69%
    04:00 +15°C° 0 mm 2 mps 719 mmHg 69%
    05:00 +15°C° 0 mm 2 mps 718 mmHg 68%
    06:00 +16°C° 0 mm 2 mps 719 mmHg 67%
    07:00 +16°C° 0 mm 2 mps 719 mmHg 65%
    08:00 +16°C° 0 mm 1 mps 719 mmHg 64%
    09:00 +19°C° 0 mm 2 mps 719 mmHg 58%
    10:00 +21°C° 0 mm 2 mps 720 mmHg 51%
    11:00 +25°C° 0 mm 2 mps 720 mmHg 45%
    12:00 +26°C° 0 mm 2 mps 719 mmHg 44%
    13:00 +27°C° 0 mm 2 mps 718 mmHg 43%
    14:00 +28°C° 0 mm 2 mps 718 mmHg 41%
    15:00 +27°C° 0 mm 2 mps 717 mmHg 47%
    16:00 +25°C° 0 mm 2 mps 717 mmHg 53%
    17:00 +24°C° 0 mm 1 mps 717 mmHg 59%
    18:00 +23°C° 0 mm 2 mps 717 mmHg 61%
    19:00 +20°C° 0 mm 2 mps 718 mmHg 63%
    20:00 +19°C° 0 mm 2 mps 718 mmHg 65%
    21:00 +19°C° 0 mm 2 mps 718 mmHg 64%
    22:00 +18°C° 0 mm 2 mps 718 mmHg 63%
    23:00 +18°C° 0 mm 2 mps 718 mmHg 63%
    Show more